Regional Weather Roundup
Issued by NWS

Home | Current Version | Previous Version | Graphics & Text | Print | Product List | Glossary On
Versions: 1 2 3 4 5 6 7 8 9 10 11 12 13 14 15 16 17 18 19 20 21 22 23 24 25 26 27 28 29 30 31 32 33 34 35 36 37 38 39 40 41 42 43 44 45 46 47 48 49 50
915
ASUS43 KDMX 031106
RWRIA

WEATHER ROUNDUP FOR IOWA
NATIONAL WEATHER SERVICE DES MOINES IA
500 AM CST SAT DEC 03 2016

NOTE: "FAIR" INDICATES FEW OR NO CLOUDS BELOW 12,000 FEET WITH NO
SIGNIFICANT WEATHER AND/OR OBSTRUCTIONS TO VISIBILITY.

* - THESE STATIONS ARE NOT NWS STATIONS...THUS NOT UNDER NWS
QUALITY CONTROL.  THEY ALSO DO NOT REPORT WEATHER SUCH
AS PRECIPITATION OR FOG.

IAZ001>003-012>014-020>022-031>034-043>046-031200-
   NORTHWEST IOWA

CITY           SKY/WX    TMP DP  RH WIND       PRES   REMARKS
CARROLL *      MOCLDY    32  30  93 CALM      30.32S
CHEROKEE *     CLOUDY    32  30  94 CALM      30.31S
DENISON *      CLEAR     28  27  93 SE5       30.29F WCI  23
LE MARS *      CLOUDY    30  28  93 S5        30.31F WCI  25
ORANGE CITY *  CLOUDY    30  28  93 CALM      30.29F
SHELDON *      CLOUDY    30  30 100 S3        30.28F
SIOUX CITY     CLEAR     26  23  88 E5        30.30F WCI  20
SPENCER        CLOUDY    31  27  85 W3        30.31S
STORM LAKE *   CLOUDY    32  28  86 SW5       30.30F WCI  27
$$

IAZ055>058-069>071-079>083-090>094-031200-
   SOUTHWEST IOWA

CITY           SKY/WX    TMP DP  RH WIND       PRES   REMARKS
ATLANTIC *     CLEAR     27  25  93 CALM      30.33F
AUDUBON *      CLEAR     27  25  93 CALM      30.32F
CLARINDA *       N/A     21  21 100 CALM      30.34F
COUNCIL BLFS * PTCLDY    27  27 100 CALM      30.31F FOG
CRESTON *        N/A     25  23  93 CALM      30.34F
HARLAN  *      CLEAR     25  25 100 CALM      30.36S
LAMONI         CLEAR     26  24  92 N3        30.33F
RED OAK *      CLEAR     21  21 100 CALM      30.33F
SHENANDOAH *   CLEAR     23  21  93 NE6       30.33F WCI  16
$$

IAZ047>049-059>061-072>074-084-031200-
   CENTRAL IOWA

CITY           SKY/WX    TMP DP  RH WIND       PRES   REMARKS
AMES           CLOUDY    33  31  92 S5        30.33  WCI  29
ANKENY *       CLOUDY    34  34 100 CALM      30.35F
BOONE *        CLOUDY    34  30  86 CALM      30.31F
CHARITON *       N/A     28  28 100 CALM      30.34F
DES MOINES     CLOUDY    36  29  75 W6        30.35S WCI  31
KNOXVILLE *    CLOUDY    34  30  86 S3        30.34S
MARSHALLTOWN   CLOUDY    32  28  85 S3        30.33F
NEWTON *       CLOUDY    32  30  93 CALM      30.34F
PELLA *        MOCLDY    34  31  87 SE3       30.36S
PERRY *        CLOUDY    33  33  96 S6        30.33S WCI  28
$$

IAZ004>006-015-016-023>025-035-036-031200-
   NORTH CENTRAL IOWA

CITY           SKY/WX    TMP DP  RH WIND       PRES   REMARKS
ALGONA *       CLOUDY    32  28  86 CALM      30.31S
CLARION *      CLOUDY    32  32 100 SW7       30.32S WCI  26
ESTHERVILLE    CLOUDY    28  23  81 N3        30.30F
FORT DODGE *   CLOUDY    34  27  75 CALM      30.33F
MASON CITY     CLOUDY    31  26  82 SW5       30.33S WCI  26
FOREST CITY *  CLOUDY    30  27  86 CALM      30.31F
WEBSTER CITY * CLOUDY    32  32 100 SW5       30.31S WCI  27
IOWA FALLS *   CLOUDY    33  30  88 S7        30.33F WCI  27
$$

IAZ007>011-017>019-026>030-037>042-050>054-066-031200-
   NORTHEAST IOWA

CITY           SKY/WX    TMP DP  RH WIND       PRES   REMARKS
CEDAR RAPIDS   CLOUDY    31  28  89 CALM      30.36S
CHARLES CITY * CLOUDY    30  27  86 S10       30.32F WCI  21
CLINTON *      CLOUDY    31  26  82 NW8       30.37S WCI  23
DECORAH *      CLOUDY    30  23  74 CALM      30.32S
DUBUQUE        CLOUDY    29  23  78 NW9       30.34S WCI  20
MONTICELLO *   CLOUDY    32  23  69 W14       30.36R WCI  22
OELWEIN *      CLOUDY    30  25  80 CALM      30.34F
WATERLOO       CLOUDY    31  25  78 S6        30.34  WCI  25
$$

IAZ064-065-067-068-078-031200-
   EAST CENTRAL IOWA

CITY           SKY/WX    TMP DP  RH WIND       PRES   REMARKS
DAVENPORT      CLOUDY    32  25  75 NW9       30.37S WCI  24
IOWA CITY      CLOUDY    34  26  72 W3        30.39F
MUSCATINE *    CLOUDY    34  28  80 CALM      30.39R
QUAD CITIES    CLOUDY    35  24  64 NW9       30.37S WCI  28
$$

IAZ062-063-075>077-085>089-095>099-031200-
   SOUTHEAST IOWA

CITY           SKY/WX    TMP DP  RH WIND       PRES   REMARKS
BURLINGTON     CLOUDY    34  31  88 N3        30.36F
FAIRFIELD *    CLOUDY    34  28  80 CALM      30.36S
FORT MADISON * CLOUDY    36  30  80 CALM      30.37S
KEOKUK *       CLOUDY    36  30  80 CALM      30.36S
OSKALOOSA *    CLOUDY    33  31  92 CALM      30.36S
CENTERVILLE *  MOCLDY    30  28  93 CALM      30.35F
OTTUMWA        CLOUDY    35  29  78 CALM      30.36S
WASHINGTON *   CLOUDY    32  30  93 CALM      30.38R
$$

ABBREVIATIONS USED IN REMARKS
   TC - TEMPERATURES IN CELSIUS
  WCI - WIND CHILL INDEX
   HX - HEAT INDEX
  VSB - VISIBILITY
$$





USA.gov is the U.S. government's official web portal to all federal, state and local government web resources and services.